Lincoln, NE

4:45 PM CST on November 15, 2019 (GMT -0600)
Lincoln Municipal

Weather History for KLNK - August, 2019

Change the Weather History Date:

Tuesday, August 20, 2019

  Actual Average Record
Temperature  
Mean Temperature 86 °F 75 °F  
Max Temperature 95 °F 87 °F 102 °F (1936)
Min Temperature 77 °F 63 °F 39 °F (1950)
Degree Days  
Heating Degree Days 0 0  
Month to date heating degree days 0 0  
Since 1 June heating degree days 6 17  
Since 1 July heating degree days 0 1  
Cooling Degree Days 21 10  
Month to date cooling degree days 235 226  
Year to date cooling degree days 981 937  
Since 1 June cooling degree days 909 858  
Growing Degree Days 36 (Base 50)    
Moisture  
Dew Point 75 °F    
Average Humidity 74    
Maximum Humidity 91    
Minimum Humidity 56    
Precipitation  
Precipitation 0.06 in 0.11 in 2.73 in (1888)
Month to date precipitation 1.96 2.20  
Year to date precipitation 23.83 20.29  
Snow  
Snow 0.00 in 0.00 in T in (2007)
Month to date snowfall 0.0 0.0  
Since 1 June snowfall 0.0 0.0  
Since 1 July snowfall 0.0 0.0  
Snow Depth 0.00 in    
Sea Level Pressure  
Sea Level Pressure 29.90 in    
Wind  
Wind Speed 8 mph (ESE)    
Max Wind Speed 18 mph    
Max Gust Speed 23 mph    
Visibility 10 miles    
Events Thunderstorm    
T = Trace of Precipitation, MM = Missing Value Source: NWS Daily Summary

Daily Weather History Graph

Daily Weather History Graph

Search for Another Location

Airport or City:

Astronomy

Aug. 20, 2019 Rise Set
Actual Time 6:41 AM CDT 8:18 PM CDT
Civil Twilight 6:12 AM CDT 8:47 PM CDT
Nautical Twilight 5:37 AM CDT 9:22 PM CDT
Astronomical Twilight 5:00 AM CDT 9:59 PM CDT
Moon 11:05 PM CDT (8/20) 11:22 AM CDT (8/20)
Length of Visible Light 14h 34m
Length of Day
13h 36m
Waning Gibbous, 77% of the Moon is Illuminated
Aug 20
Waning Gibbous
Aug 23
Last Quarter
Aug 30
New
Sep 5
First Quarter
Sep 13
Full

Hourly Weather History & Observations

Time (CDT) Temp. Heat Index Dew Point Humidity Pressure Visibility Wind Dir Wind Speed Gust Speed Precip Events Conditions
12:54 AM 81.0 °F 87.3 °F 75.9 °F 85% 29.87 in 10.0 mi South 10.4 mph - N/A   Clear
1:54 AM 80.1 °F 85.4 °F 75.9 °F 87% 29.86 in 10.0 mi South 6.9 mph - N/A   Clear
2:54 AM 79.0 °F - 75.0 °F 88% 29.84 in 9.0 mi South 8.1 mph - N/A   Clear
3:54 AM 80.1 °F 85.1 °F 75.0 °F 85% 29.81 in 10.0 mi South 12.7 mph - N/A   Clear
4:54 AM 81.0 °F 86.2 °F 73.9 °F 79% 29.80 in 10.0 mi SSW 11.5 mph - N/A   Clear
5:54 AM 81.0 °F 85.8 °F 73.0 °F 77% 29.83 in 10.0 mi WSW 6.9 mph - N/A   Clear
6:54 AM 80.1 °F 83.8 °F 72.0 °F 76% 29.85 in 10.0 mi SW 6.9 mph - N/A   Clear
7:54 AM 78.1 °F - 73.0 °F 84% 29.88 in 9.0 mi SSW 5.8 mph - N/A   Clear
8:54 AM 82.9 °F 88.8 °F 73.0 °F 72% 29.89 in 10.0 mi West 4.6 mph - N/A   Clear
9:54 AM 86.0 °F 93.8 °F 73.9 °F 67% 29.91 in 10.0 mi NNW 8.1 mph 17.3 mph N/A   Clear
10:54 AM 88.0 °F 97.5 °F 75.0 °F 65% 29.91 in 10.0 mi North 6.9 mph - N/A   Clear
11:54 AM 90.0 °F 100.2 °F 75.0 °F 61% 29.91 in 10.0 mi Variable 3.5 mph - N/A   Clear
12:54 PM 91.9 °F 103.9 °F 75.9 °F 59% 29.91 in 10.0 mi North 6.9 mph - N/A   Clear
1:54 PM 93.0 °F 106.7 °F 77.0 °F 59% 29.92 in 10.0 mi NE 8.1 mph - N/A   Scattered Clouds
2:54 PM 93.9 °F 108.4 °F 77.0 °F 58% 29.91 in 10.0 mi Variable 4.6 mph - N/A   Partly Cloudy
3:54 PM 93.9 °F 109.9 °F 78.1 °F 60% 29.91 in 10.0 mi ENE 10.4 mph - N/A   Clear
4:54 PM 93.9 °F 106.9 °F 75.9 °F 56% 29.90 in 10.0 mi ESE 8.1 mph - N/A   Clear
5:54 PM 93.0 °F 104.6 °F 75.0 °F 56% 29.90 in 10.0 mi Variable 4.6 mph - N/A   Clear
6:54 PM 91.0 °F 100.4 °F 73.9 °F 57% 29.88 in 10.0 mi SE 9.2 mph - N/A   Clear
7:54 PM 86.0 °F 96.0 °F 75.9 °F 72% 29.93 in 10.0 mi NNE 8.1 mph - N/A   Clear
8:54 PM 84.9 °F 96.6 °F 78.1 °F 80% 29.94 in 10.0 mi NE 10.4 mph - N/A   Clear
9:54 PM 84.0 °F 94.8 °F 78.1 °F 82% 29.95 in 10.0 mi East 4.6 mph - N/A   Clear
10:54 PM 82.9 °F 91.8 °F 77.0 °F 82% 29.94 in 10.0 mi South 4.6 mph - N/A   Clear
11:07 PM 82.0 °F 90.2 °F 77.0 °F 85% 29.99 in 5.0 mi NE 5.8 mph 16.1 mph N/A   Haze
11:51 PM 82.4 °F 90.9 °F 77.0 °F 84% 30.01 in 9.0 mi NNE 16.1 mph - N/A Thunderstorm Thunderstorm
11:54 PM 82.0 °F 90.2 °F 77.0 °F 85% 29.97 in 2.5 mi NNE 15.0 mph - N/A Thunderstorm Unknown